Location: Unspecified
(43.4354°N, 0.0000°E)
Time: 03:52:11
(UTC+00:00)

SEEDS - Pass Details

Date: 11 August 2020
Orbit: 584 x 604 km, 97.5° (Epoch: 22 September)

Event Time Altitude Azimuth Distance (km) Brightness Sun altitude
Rises 04:21:27 0° 29° (NNE) 2,867 ? -7.3°
Reaches altitude 10° 04:24:15 10° 48° (NE) 1,956 ? -6.9°
Maximum altitude 04:27:11 18° 92° (E) 1,493 ? -6.4°
Drops below altitude 10° 04:30:06 10° 136° (SE) 1,939 ? -5.9°
Sets 04:32:50 0° 155° (SSE) 2,831 ? -5.5°
